Tracking 28052 objects as of 25-Sep-2023
HD Live streaming from Space Station
objects crossing your sky now

SL-14 R/B

Track SL-14 R/B now!
10-day predictions
SL-14 R/B is classified as:


NORAD ID: 14820
Int'l Code: 1984-027B
Perigee: 608.9 km
Apogee: 636.7 km
Inclination: 82.5 °
Period: 97.0 minutes
Semi major axis: 6993 km
RCS: 3.863 m2 (large)
Launch date: March 15, 1984
Source: Commonwealth of Independent States (former USSR) (CIS)
Launch site: PLESETSK MISSILE AND SPACE COMPLEX (PKMTR)

Note: This is a ROCKET BODY
Your satellite tracking list
Your tracking list is empty




NASA's NSSDC Master Catalog

Two Line Element Set (TLE):
1 14820U 84027B   23267.76730352  .00000867  00000-0  10007-3 0  9991
2 14820  82.5463   5.0995 0019841  63.0164 297.3075 14.84344886114500
Source of the keplerian elements: AFSPC